Powrót do katalogu

DELTA 1 DEB

AktywnySSO
NORAD 12542·DEBRIS·🇺🇸 United States

Wystrzelony Jul 29, 1976 z Vandenberg Space Force Base

Loading…

Następne Przeloty (najbliższe 24 godziny)

TLE

ŚwieżeSource: Space-Track

Epoka: Sep 13, 2026, 21:49 UTC

1 12542U 76077DX  26256.90923199  .00000036  00000-0  51885-3 0  9993
2 12542 101.9598 241.2757 0060403 114.1233 302.1866 12.52410635 89197

Śledź DELTA 1 DEB w czasie rzeczywistym z AllMySat

Download on the App Store